QPF
0.00 0.00 0.00 0.00 0.00 0.00 0.00 0.00 0.00 0.00 0.00 0.00 0.00 0.00 0.00 0.00 0.00 0.00 0.01 0.02 0.04 0.10 0.19 0.33 0.59 0.93 1.26 1.82 2.48 2.75 2.41 1.94 1.32 0.86 0.55 0.31 0.19 0.13 0.09 0.06 0.03 0.01 0.01 0.00
0.00 0.00 0.00 0.00 0.00 0.00 0.00 0.00 0.00 0.00 0.00 0.00 0.00 0.00 0.00 0.00 0.00 0.00 0.01 0.02 0.06 0.12 0.24 0.47 0.77 1.06 1.34 1.78 2.31 2.41 2.06 1.56 0.97 0.60 0.40 0.26 0.16 0.10 0.05 0.04 0.03 0.01 0.00 0.00
0.00 0.00 0.00 0.00 0.00 0.00 0.00 0.00 0.00 0.00 0.00 0.00 0.00 0.00 0.01 0.01 0.01 0.01 0.02 0.03 0.05 0.10 0.25 0.51 0.78 1.08 1.37 1.51 1.60 1.62 1.26 0.77 0.51 0.33 0.25 0.17 0.13 0.12 0.08 0.05 0.03 0.01 0.00 0.00
0.00 0.00 0.00 0.00 0.00 0.00 0.00 0.00 0.00 0.00 0.00 0.00 0.00 0.01 0.03 0.05 0.03 0.02 0.03 0.04 0.05 0.08 0.20 0.39 0.52 0.60 0.76 0.92 0.91 0.76 0.62 0.40 0.27 0.23 0.22 0.19 0.13 0.11 0.08 0.05 0.03 0.01 0.00 0.00
0.00 0.00 0.00 0.00 0.00 0.00 0.00 0.00 0.00 0.00 0.00 0.00 0.00 0.01 0.04 0.07 0.05 0.03 0.03 0.03 0.03 0.04 0.09 0.15 0.20 0.21 0.27 0.35 0.40 0.36 0.35 0.27 0.26 0.27 0.27 0.28 0.18 0.11 0.08 0.06 0.05 0.04 0.02 0.02
0.01 0.01 0.00 0.00 0.00 0.00 0.00 0.00 0.00 0.00 0.01 0.03 0.03 0.04 0.12 0.21 0.15 0.07 0.04 0.03 0.02 0.02 0.03 0.04 0.04 0.06 0.08 0.08 0.15 0.22 0.27 0.28 0.26 0.23 0.21 0.19 0.14 0.11 0.09 0.07 0.07 0.06 0.05 0.04
0.02 0.01 0.01 0.00 0.00 0.00 0.00 0.00 0.00 0.00 0.01 0.02 0.03 0.04 0.15 0.27 0.20 0.10 0.05 0.03 0.02 0.02 0.01 0.01 0.02 0.03 0.05 0.06 0.12 0.15 0.14 0.15 0.17 0.17 0.16 0.14 0.14 0.12 0.11 0.10 0.08 0.07 0.07 0.07
0.04 0.03 0.01 0.00 0.01 0.01 0.00 0.00 0.00 0.00 0.00 0.01 0.02 0.08 0.20 0.21 0.16 0.09 0.05 0.04 0.02 0.01 0.00 0.00 0.00 0.01 0.01 0.02 0.03 0.04 0.05 0.06 0.08 0.08 0.09 0.10 0.11 0.11 0.12 0.12 0.10 0.10 0.11 0.12
0.00 0.00 0.00 0.01 0.01 0.02 0.01 0.01 0.01 0.00 0.00 0.00 0.04 0.09 0.11 0.13 0.11 0.07 0.04 0.02 0.01 0.00 0.00 0.00 0.00 0.00 0.00 0.01 0.01 0.01 0.02 0.02 0.03 0.03 0.03 0.05 0.06 0.06 0.07 0.09 0.09 0.09 0.12 0.14
0.00 0.00 0.00 0.00 0.01 0.01 0.02 0.02 0.01 0.00 0.00 0.00 0.02 0.10 0.12 0.08 0.06 0.05 0.03 0.02 0.01 0.00 0.00 0.00 0.00 0.00 0.00 0.00 0.00 0.00 0.00 0.00 0.00 0.01 0.01 0.01 0.02 0.02 0.03 0.03 0.04 0.05 0.06 0.07
0.00 0.00 0.00 0.00 0.01 0.01 0.01 0.01 0.01 0.01 0.00 0.00 0.01 0.06 0.05 0.04 0.02 0.02 0.01 0.01 0.00 0.00 0.00 0.00 0.00 0.00 0.00 0.00 0.00 0.00 0.00 0.00 0.00 0.00 0.00 0.00 0.00 0.00 0.00 0.01 0.01 0.01 0.01 0.02
0.00 0.00 0.00 0.00 0.01 0.01 0.01 0.01 0.01 0.01 0.01 0.01 0.02 0.03 0.02 0.02 0.01 0.01 0.01 0.00 0.00 0.00 0.00 0.00 0.00 0.00 0.00 0.00 0.00 0.00 0.00 0.00 0.00 0.00 0.00 0.00 0.00 0.00 0.00 0.00 0.00 0.00 0.00 0.00
0.00 0.00 0.00 0.00 0.00 0.01 0.01 0.01 0.02 0.01 0.01 0.02 0.03 0.03 0.01 0.01 0.00 0.00 0.00 0.00 0.00 0.00 0.00 0.00 0.00 0.00 0.00 0.00 0.00 0.00 0.00 0.00 0.00 0.00 0.00 0.00 0.00 0.00 0.00 0.00 0.00 0.00 0.00 0.00
0.00 0.00 0.00 0.00 0.00 0.00 0.01 0.02 0.02 0.02 0.02 0.01 0.01 0.02 0.01 0.00 0.00 0.00 0.00 0.00 0.00 0.00 0.00 0.00 0.00 0.00 0.00 0.00 0.00 0.00 0.00 0.00 0.00 0.00 0.00 0.00 0.00 0.00 0.00 0.00 0.00 0.00 0.00 0.00
0.00 0.00 0.00 0.00 0.00 0.00 0.02 0.03 0.03 0.02 0.01 0.01 0.00 0.00 0.00 0.00 0.00 0.00 0.00 0.00 0.00 0.00 0.00 0.00 0.00 0.00 0.00 0.00 0.00 0.00 0.00 0.00 0.00 0.00 0.00 0.00 0.00 0.00 0.00 0.00 0.00 0.00 0.00 0.00
0.00 0.00 0.00 0.00 0.00 0.00 0.02 0.04 0.02 0.00 0.00 0.00 0.00 0.00 0.00 0.00 0.00 0.00 0.00 0.00 0.00 0.00 0.00 0.00 0.00 0.00 0.00 0.00 0.00 0.00 0.00 0.00 0.00 0.00 0.00 0.00 0.00 0.00 0.00 0.00 0.00 0.00 0.00 0.00
0.00 0.00 0.00 0.00 0.00 0.00 0.01 0.02 0.01 0.00 0.00 0.00 0.00 0.00 0.00 0.00 0.00 0.00 0.00 0.00 0.00 0.00 0.00 0.00 0.00 0.00 0.00 0.00 0.00 0.00 0.00 0.00 0.00 0.00 0.00 0.00 0.00 0.00 0.00 0.00 0.01 0.01 0.01 0.01
0.00 0.00 0.00 0.00 0.00 0.01 0.01 0.00 0.00 0.00 0.00 0.00 0.00 0.00 0.00 0.00 0.00 0.00 0.00 0.00 0.00 0.00 0.00 0.00 0.00 0.00 0.00 0.00 0.00 0.00 0.00 0.00 0.00 0.00 0.00 0.00 0.00 0.00 0.00 0.00 0.00 0.00 0.00 0.01
0.00 0.00 0.00 0.00 0.00 0.00 0.00 0.00 0.00 0.00 0.00 0.00 0.00 0.00 0.00 0.00 0.00 0.00 0.00 0.00 0.00 0.00 0.00 0.00 0.00 0.00 0.00 0.00 0.00 0.00 0.00 0.00 0.01 0.01 0.01 0.01 0.00 0.00 0.00 0.00 0.00 0.00 0.00 0.00
0.00 0.00 0.00 0.00 0.00 0.00 0.00 0.00 0.00 0.00 0.00 0.00 0.00 0.00 0.00 0.00 0.00 0.00 0.00 0.00 0.00 0.00 0.00 0.00 0.00 0.00 0.00 0.00 0.00 0.01 0.01 0.01 0.02 0.02 0.02 0.02 0.01 0.01 0.01 0.00 0.00 0.00 0.00 0.00
0.00 0.00 0.00 0.00 0.00 0.00 0.00 0.00 0.00 0.00 0.00 0.00 0.00 0.00 0.00 0.00 0.00 0.00 0.00 0.00 0.00 0.00 0.00 0.00 0.00 0.00 0.00 0.00 0.01 0.02 0.02 0.02 0.03 0.04 0.04 0.03 0.02 0.02 0.02 0.01 0.01 0.01 0.01 0.01
0.00 0.00 0.00 0.00 0.00 0.00 0.00 0.00 0.00 0.00 0.00 0.00 0.00 0.00 0.00 0.00 0.00 0.00 0.00 0.00 0.00 0.00 0.00 0.00 0.00 0.00 0.00 0.01 0.02 0.04 0.04 0.04 0.04 0.05 0.05 0.04 0.04 0.03 0.03 0.02 0.02 0.01 0.01 0.01
0.00 0.00 0.00 0.00 0.00 0.00 0.00 0.00 0.00 0.00 0.00 0.00 0.00 0.00 0.00 0.00 0.00 0.00 0.00 0.00 0.00 0.00 0.00 0.00 0.00 0.01 0.01 0.01 0.03 0.06 0.06 0.05 0.06 0.06 0.05 0.05 0.05 0.04 0.04 0.04 0.03 0.02 0.01 0.01
0.00 0.00 0.00 0.00 0.00 0.00 0.00 0.00 0.00 0.00 0.00 0.00 0.00 0.00 0.00 0.00 0.00 0.00 0.00 0.00 0.00 0.00 0.00 0.01 0.02 0.02 0.02 0.02 0.03 0.04 0.05 0.07 0.08 0.08 0.07 0.06 0.06 0.05 0.04 0.04 0.04 0.03 0.02 0.01
0.00 0.00 0.00 0.00 0.00 0.00 0.00 0.00 0.00 0.00 0.00 0.00 0.00 0.00 0.00 0.00 0.00 0.00 0.00 0.00 0.00 0.00 0.01 0.02 0.03 0.04 0.03 0.03 0.03 0.04 0.06 0.08 0.10 0.09 0.08 0.07 0.07 0.07 0.06 0.05 0.04 0.03 0.02 0.02
0.00 0.00 0.00 0.00 0.00 0.00 0.00 0.00 0.00 0.00 0.00 0.00 0.00 0.00 0.00 0.00 0.00 0.00 0.00 0.00 0.00 0.01 0.02 0.03 0.04 0.04 0.04 0.04 0.04 0.04 0.06 0.08 0.09 0.08 0.06 0.06 0.06 0.06 0.06 0.04 0.03 0.02 0.01 0.01
MSLP
1010.09 1010.84 1011.34 1011.56 1011.51 1011.29 1010.97 1010.66 1010.44 1010.36 1010.43 1010.61 1010.87 1011.15 1011.41 1011.62 1011.78 1011.88 1011.97 1012.05 1012.13 1012.22 1012.27 1012.26 1012.15 1011.91 1011.53 1011.03 1010.45 1009.84 1009.27 1008.79 1008.45 1008.26 1008.20 1008.26 1008.38 1008.54 1008.70 1008.85 1008.98 1009.13 1009.30 1009.53
1010.66 1011.18 1011.43 1011.42 1011.22 1010.94 1010.67 1010.51 1010.53 1010.73 1011.10 1011.57 1012.06 1012.52 1012.89 1013.13 1013.27 1013.33 1013.33 1013.32 1013.30 1013.28 1013.21 1013.06 1012.81 1012.42 1011.90 1011.27 1010.60 1009.93 1009.36 1008.91 1008.63 1008.52 1008.53 1008.64 1008.77 1008.89 1008.97 1009.01 1009.02 1009.04 1009.11 1009.26
1011.13 1011.39 1011.40 1011.19 1010.88 1010.57 1010.39 1010.42 1010.69 1011.19 1011.84 1012.56 1013.25 1013.83 1014.24 1014.47 1014.54 1014.50 1014.40 1014.27 1014.16 1014.03 1013.88 1013.66 1013.33 1012.88 1012.30 1011.63 1010.93 1010.28 1009.73 1009.33 1009.12 1009.06 1009.12 1009.24 1009.35 1009.41 1009.40 1009.30 1009.18 1009.06 1009.00 1009.05
1011.49 1011.50 1011.28 1010.92 1010.53 1010.26 1010.21 1010.45 1010.98 1011.75 1012.65 1013.58 1014.40 1015.04 1015.44 1015.59 1015.54 1015.36 1015.13 1014.89 1014.67 1014.49 1014.30 1014.06 1013.74 1013.30 1012.74 1012.10 1011.44 1010.83 1010.33 1010.00 1009.82 1009.80 1009.88 1009.98 1010.05 1010.04 1009.91 1009.70 1009.43 1009.17 1008.99 1008.93
1011.76 1011.54 1011.13 1010.66 1010.26 1010.07 1010.17 1010.63 1011.41 1012.41 1013.52 1014.58 1015.48 1016.10 1016.43 1016.45 1016.25 1015.92 1015.54 1015.18 1014.89 1014.67 1014.49 1014.29 1014.02 1013.65 1013.18 1012.63 1012.05 1011.51 1011.07 1010.78 1010.64 1010.62 1010.69 1010.76 1010.77 1010.68 1010.46 1010.13 1009.74 1009.36 1009.06 1008.88
1011.98 1011.55 1011.01 1010.48 1010.10 1010.01 1010.29 1010.95 1011.93 1013.12 1014.37 1015.51 1016.41 1016.97 1017.18 1017.05 1016.69 1016.19 1015.67 1015.22 1014.87 1014.64 1014.49 1014.36 1014.18 1013.93 1013.57 1013.13 1012.64 1012.18 1011.80 1011.54 1011.41 1011.39 1011.42 1011.45 1011.41 1011.25 1010.95 1010.54 1010.07 1009.59 1009.19 1008.91
1012.18 1011.60 1010.96 1010.41 1010.09 1010.11 1010.54 1011.36 1012.50 1013.81 1015.13 1016.28 1017.13 1017.60 1017.68 1017.40 1016.88 1016.24 1015.60 1015.07 1014.69 1014.46 1014.36 1014.30 1014.23 1014.09 1013.84 1013.51 1013.12 1012.73 1012.40 1012.16 1012.02 1011.98 1011.98 1011.96 1011.88 1011.68 1011.34 1010.89 1010.37 1009.84 1009.37 1009.02
1012.39 1011.70 1011.03 1010.49 1010.24 1010.36 1010.90 1011.84 1013.06 1014.42 1015.73 1016.84 1017.61 1017.97 1017.92 1017.51 1016.87 1016.13 1015.42 1014.83 1014.43 1014.22 1014.15 1014.16 1014.17 1014.12 1013.97 1013.72 1013.41 1013.07 1012.76 1012.53 1012.38 1012.31 1012.28 1012.24 1012.13 1011.92 1011.59 1011.14 1010.62 1010.08 1009.58 1009.16
1012.60 1011.89 1011.22 1010.74 1010.56 1010.76 1011.36 1012.33 1013.56 1014.89 1016.14 1017.17 1017.84 1018.10 1017.95 1017.45 1016.74 1015.95 1015.20 1014.60 1014.19 1013.98 1013.93 1013.97 1014.02 1014.02 1013.92 1013.73 1013.46 1013.15 1012.85 1012.61 1012.45 1012.36 1012.30 1012.25 1012.15 1011.95 1011.65 1011.25 1010.77 1010.25 1009.76 1009.32
1012.81 1012.14 1011.55 1011.14 1011.03 1011.28 1011.90 1012.84 1014.01 1015.24 1016.38 1017.29 1017.85 1018.02 1017.82 1017.29 1016.57 1015.78 1015.04 1014.44 1014.03 1013.81 1013.75 1013.78 1013.82 1013.82 1013.73 1013.54 1013.27 1012.97 1012.67 1012.42 1012.23 1012.12 1012.06 1012.01 1011.92 1011.77 1011.53 1011.20 1010.78 1010.33 1009.87 1009.44
1013.00 1012.46 1011.98 1011.68 1011.64 1011.92 1012.51 1013.38 1014.42 1015.51 1016.50 1017.27 1017.73 1017.84 1017.61 1017.10 1016.42 1015.68 1014.98 1014.40 1013.99 1013.75 1013.64 1013.61 1013.59 1013.53 1013.39 1013.17 1012.88 1012.56 1012.24 1011.97 1011.77 1011.64 1011.57 1011.53 1011.47 1011.37 1011.20 1010.95 1010.63 1010.26 1009.86 1009.47
1013.17 1012.81 1012.50 1012.33 1012.37 1012.66 1013.19 1013.95 1014.83 1015.74 1016.56 1017.19 1017.56 1017.63 1017.41 1016.95 1016.35 1015.68 1015.04 1014.49 1014.07 1013.78 1013.59 1013.46 1013.34 1013.18 1012.96 1012.67 1012.33 1011.97 1011.63 1011.34 1011.12 1010.98 1010.90 1010.86 1010.83 1010.78 1010.67 1010.51 1010.28 1010.00 1009.68 1009.35
1013.32 1013.18 1013.07 1013.06 1013.18 1013.47 1013.95 1014.57 1015.29 1016.01 1016.65 1017.14 1017.42 1017.46 1017.27 1016.88 1016.36 1015.77 1015.19 1014.67 1014.22 1013.86 1013.56 1013.30 1013.04 1012.76 1012.43 1012.06 1011.66 1011.26 1010.89 1010.57 1010.33 1010.17 1010.08 1010.04 1010.02 1010.00 1009.95 1009.86 1009.71 1009.53 1009.30 1009.05
1013.48 1013.58 1013.68 1013.82 1014.03 1014.33 1014.75 1015.24 1015.79 1016.33 1016.80 1017.15 1017.35 1017.36 1017.19 1016.86 1016.42 1015.91 1015.38 1014.85 1014.36 1013.91 1013.49 1013.08 1012.68 1012.25 1011.81 1011.35 1010.89 1010.45 1010.05 1009.71 1009.45 1009.26 1009.14 1009.08 1009.06 1009.05 1009.04 1009.01 1008.94 1008.85 1008.72 1008.55
1013.71 1014.02 1014.30 1014.58 1014.87 1015.19 1015.55 1015.93 1016.32 1016.69 1017.00 1017.23 1017.34 1017.32 1017.16 1016.88 1016.49 1016.03 1015.51 1014.97 1014.42 1013.87 1013.32 1012.77 1012.22 1011.66 1011.11 1010.57 1010.05 1009.57 1009.14 1008.78 1008.49 1008.28 1008.13 1008.04 1007.99 1007.98 1007.99 1007.99 1007.99 1007.98 1007.93 1007.86
1014.03 1014.50 1014.93 1015.32 1015.67 1016.00 1016.30 1016.58 1016.84 1017.06 1017.23 1017.33 1017.36 1017.29 1017.13 1016.86 1016.50 1016.05 1015.53 1014.95 1014.33 1013.68 1013.01 1012.33 1011.65 1010.98 1010.34 1009.73 1009.17 1008.65 1008.20 1007.82 1007.50 1007.25 1007.06 1006.93 1006.85 1006.82 1006.83 1006.86 1006.91 1006.96 1006.99 1007.01
1014.48 1015.03 1015.55 1016.00 1016.38 1016.70 1016.95 1017.15 1017.29 1017.38 1017.43 1017.42 1017.36 1017.24 1017.04 1016.76 1016.40 1015.94 1015.40 1014.77 1014.08 1013.34 1012.57 1011.78 1011.00 1010.24 1009.53 1008.87 1008.27 1007.74 1007.27 1006.86 1006.51 1006.22 1005.98 1005.81 1005.69 1005.63 1005.63 1005.68 1005.76 1005.86 1005.96 1006.05
1015.03 1015.60 1016.13 1016.59 1016.97 1017.25 1017.45 1017.56 1017.60 1017.59 1017.53 1017.43 1017.29 1017.11 1016.87 1016.56 1016.16 1015.68 1015.11 1014.44 1013.69 1012.88 1012.03 1011.17 1010.32 1009.50 1008.74 1008.05 1007.42 1006.86 1006.37 1005.93 1005.55 1005.22 1004.94 1004.72 1004.56 1004.47 1004.45 1004.50 1004.61 1004.75 1004.91 1005.05
1015.65 1016.17 1016.65 1017.06 1017.39 1017.62 1017.75 1017.79 1017.75 1017.65 1017.51 1017.33 1017.12 1016.87 1016.58 1016.24 1015.82 1015.31 1014.70 1014.01 1013.22 1012.37 1011.48 1010.57 1009.68 1008.83 1008.04 1007.32 1006.67 1006.08 1005.56 1005.09 1004.67 1004.29 1003.97 1003.70 1003.50 1003.38 1003.35 1003.40 1003.52 1003.69 1003.88 1004.07
1016.25 1016.66 1017.05 1017.38 1017.63 1017.79 1017.85 1017.83 1017.72 1017.56 1017.35 1017.10 1016.83 1016.54 1016.21 1015.83 1015.39 1014.86 1014.25 1013.54 1012.74 1011.88 1010.97 1010.05 1009.15 1008.28 1007.47 1006.73 1006.05 1005.43 1004.87 1004.36 1003.89 1003.46 1003.09 1002.78 1002.55 1002.41 1002.36 1002.40 1002.53 1002.72 1002.93 1003.15
1016.73 1017.02 1017.29 1017.51 1017.67 1017.76 1017.76 1017.68 1017.52 1017.31 1017.06 1016.77 1016.47 1016.14 1015.78 1015.39 1014.93 1014.40 1013.79 1013.10 1012.32 1011.47 1010.58 1009.67 1008.77 1007.89 1007.07 1006.29 1005.58 1004.92 1004.31 1003.74 1003.22 1002.75 1002.33 1001.99 1001.72 1001.56 1001.50 1001.54 1001.66 1001.85 1002.08 1002.31
1017.00 1017.17 1017.33 1017.45 1017.53 1017.55 1017.49 1017.37 1017.19 1016.95 1016.67 1016.37 1016.04 1015.70 1015.33 1014.93 1014.48 1013.97 1013.38 1012.72 1011.98 1011.17 1010.31 1009.43 1008.54 1007.66 1006.82 1006.01 1005.25 1004.54 1003.87 1003.25 1002.67 1002.15 1001.69 1001.31 1001.02 1000.84 1000.76 1000.79 1000.91 1001.10 1001.33 1001.57
1017.01 1017.09 1017.15 1017.20 1017.21 1017.18 1017.10 1016.96 1016.76 1016.52 1016.24 1015.94 1015.61 1015.26 1014.90 1014.50 1014.07 1013.58 1013.04 1012.42 1011.73 1010.97 1010.15 1009.30 1008.43 1007.55 1006.68 1005.84 1005.03 1004.26 1003.53 1002.84 1002.21 1001.64 1001.14 1000.74 1000.43 1000.23 1000.14 1000.17 1000.28 1000.45 1000.67 1000.90
1016.75 1016.76 1016.77 1016.77 1016.75 1016.70 1016.61 1016.48 1016.30 1016.08 1015.81 1015.52 1015.20 1014.86 1014.50 1014.12 1013.71 1013.25 1012.74 1012.17 1011.53 1010.82 1010.05 1009.23 1008.37 1007.49 1006.60 1005.72 1004.86 1004.03 1003.24 1002.50 1001.82 1001.21 1000.69 1000.26 999.94 999.73 999.63 999.64 999.74 999.90 1000.10 1000.32
1016.25 1016.23 1016.21 1016.20 1016.18 1016.15 1016.09 1015.99 1015.84 1015.65 1015.42 1015.14 1014.84 1014.51 1014.16 1013.79 1013.40 1012.97 1012.49 1011.95 1011.36 1010.69 1009.96 1009.16 1008.32 1007.43 1006.52 1005.61 1004.70 1003.82 1002.98 1002.20 1001.48 1000.85 1000.31 999.87 999.54 999.33 999.22 999.21 999.29 999.43 999.62 999.82
1015.58 1015.56 1015.55 1015.56 1015.57 1015.58 1015.57 1015.52 1015.42 1015.28 1015.08 1014.84 1014.55 1014.23 1013.89 1013.53 1013.14 1012.72 1012.26 1011.75 1011.18 1010.54 1009.83 1009.05 1008.21 1007.32 1006.40 1005.46 1004.52 1003.60 1002.74 1001.93 1001.19 1000.55 1000.01 999.57 999.24 999.03 998.91 998.89 998.95 999.07 999.22 999.40
Thickness
5787 5768 5758 5768 5775 5777 5777 5772 5770 5784 5805 5791 5770 5762 5762 5768 5770 5765 5763 5762 5757 5754 5754 5755 5755 5754 5753 5749 5744 5740 5733 5727 5727 5728 5728 5729 5732 5737 5739 5740 5741 5739 5737 5735
5764 5760 5781 5792 5793 5786 5778 5769 5769 5781 5797 5784 5759 5749 5748 5753 5751 5749 5747 5743 5741 5740 5741 5742 5742 5741 5739 5738 5738 5736 5728 5722 5720 5719 5723 5725 5727 5729 5731 5733 5734 5733 5732 5730
5760 5775 5793 5789 5782 5777 5774 5769 5769 5771 5779 5777 5762 5738 5736 5739 5743 5741 5736 5731 5726 5726 5726 5728 5729 5729 5730 5730 5728 5728 5722 5718 5715 5717 5719 5719 5719 5720 5721 5722 5724 5725 5726 5726
5766 5780 5782 5777 5776 5777 5761 5782 5781 5774 5757 5740 5750 5717 5719 5724 5726 5726 5724 5721 5717 5717 5719 5720 5721 5722 5721 5720 5719 5715 5711 5709 5708 5711 5711 5710 5708 5707 5710 5713 5716 5718 5720 5720
5757 5771 5772 5769 5778 5782 5774 5785 5776 5767 5751 5736 5733 5716 5707 5716 5708 5709 5712 5712 5712 5712 5712 5712 5713 5712 5710 5708 5705 5702 5699 5698 5699 5700 5700 5699 5699 5699 5702 5705 5707 5709 5712 5713
5768 5781 5781 5779 5788 5790 5785 5772 5757 5742 5728 5712 5717 5709 5699 5700 5697 5701 5705 5706 5706 5705 5703 5702 5702 5700 5698 5696 5693 5690 5687 5686 5686 5687 5687 5686 5686 5686 5688 5691 5694 5698 5701 5704
5754 5771 5785 5789 5778 5782 5774 5738 5711 5707 5695 5696 5711 5703 5695 5701 5703 5703 5701 5700 5700 5698 5693 5691 5689 5686 5683 5681 5679 5677 5676 5674 5674 5674 5673 5673 5673 5674 5674 5676 5679 5682 5686 5691
5731 5739 5770 5782 5776 5764 5766 5742 5708 5695 5690 5692 5701 5693 5694 5703 5703 5703 5701 5698 5694 5689 5685 5682 5679 5675 5671 5669 5667 5665 5664 5662 5661 5661 5660 5660 5660 5660 5661 5663 5665 5668 5672 5676
5727 5736 5774 5785 5788 5777 5759 5746 5741 5713 5707 5688 5686 5688 5692 5697 5694 5694 5692 5687 5682 5678 5675 5671 5667 5663 5659 5656 5654 5652 5650 5649 5649 5648 5646 5645 5645 5646 5647 5650 5652 5655 5658 5663
5748 5738 5760 5776 5780 5775 5767 5752 5726 5709 5692 5681 5684 5681 5678 5683 5684 5685 5681 5676 5672 5669 5666 5662 5657 5652 5647 5642 5638 5634 5632 5630 5630 5630 5630 5630 5629 5629 5630 5632 5635 5638 5642 5647
5757 5737 5742 5753 5751 5750 5754 5744 5725 5705 5697 5679 5669 5675 5693 5686 5684 5678 5673 5668 5664 5660 5656 5652 5648 5643 5637 5629 5621 5614 5610 5607 5607 5608 5609 5609 5610 5610 5611 5612 5616 5620 5624 5629
5756 5731 5721 5735 5755 5765 5754 5742 5725 5700 5692 5685 5668 5669 5694 5686 5678 5671 5664 5660 5656 5652 5647 5642 5637 5630 5623 5615 5608 5600 5594 5589 5586 5586 5586 5586 5587 5588 5589 5592 5595 5600 5604 5609
5751 5725 5705 5711 5725 5741 5736 5734 5725 5705 5686 5675 5663 5665 5683 5675 5667 5661 5655 5649 5645 5641 5636 5629 5622 5615 5609 5602 5596 5590 5584 5579 5575 5572 5569 5568 5568 5568 5569 5572 5575 5579 5583 5588
5756 5722 5708 5697 5704 5721 5718 5719 5716 5700 5676 5670 5668 5662 5659 5658 5653 5648 5643 5638 5633 5629 5622 5615 5608 5602 5597 5592 5587 5582 5577 5573 5569 5566 5562 5560 5558 5558 5558 5558 5559 5561 5564 5568
5744 5719 5722 5722 5727 5724 5714 5711 5707 5694 5685 5670 5665 5656 5649 5648 5644 5639 5634 5629 5625 5618 5612 5605 5599 5594 5589 5585 5581 5577 5573 5569 5565 5560 5556 5555 5554 5552 5551 5550 5550 5551 5552 5555
5733 5719 5714 5711 5721 5716 5704 5701 5698 5690 5682 5672 5662 5649 5649 5646 5639 5632 5625 5621 5614 5607 5602 5597 5593 5588 5585 5581 5577 5574 5569 5565 5560 5555 5552 5549 5547 5545 5543 5543 5543 5543 5544 5545
5726 5715 5704 5697 5709 5708 5682 5687 5684 5676 5668 5658 5644 5639 5639 5633 5628 5621 5614 5607 5600 5596 5593 5590 5586 5582 5579 5576 5572 5567 5564 5559 5554 5549 5546 5543 5540 5537 5536 5535 5535 5535 5535 5537
5726 5711 5694 5689 5690 5678 5682 5695 5686 5670 5656 5652 5644 5637 5631 5624 5620 5615 5607 5599 5594 5590 5587 5584 5579 5576 5572 5568 5563 5558 5553 5548 5543 5540 5537 5534 5531 5529 5527 5525 5525 5525 5526 5528
5729 5713 5692 5678 5675 5678 5683 5686 5679 5664 5649 5646 5638 5632 5628 5623 5616 5609 5603 5595 5587 5583 5579 5575 5571 5566 5561 5555 5548 5542 5536 5531 5527 5524 5522 5521 5519 5518 5516 5515 5515 5516 5517 5519
5721 5708 5689 5678 5673 5665 5671 5682 5683 5666 5644 5641 5635 5626 5621 5611 5596 5597 5598 5589 5583 5578 5572 5567 5562 5555 5548 5541 5533 5525 5518 5513 5510 5507 5506 5506 5505 5505 5505 5506 5507 5508 5509 5512
5703 5692 5681 5673 5667 5668 5674 5679 5669 5639 5631 5635 5629 5619 5610 5598 5591 5594 5592 5585 5578 5572 5566 5560 5553 5544 5536 5527 5518 5509 5502 5496 5493 5490 5490 5491 5491 5492 5494 5496 5498 5500 5502 5504
5694 5681 5674 5665 5656 5656 5674 5667 5649 5637 5636 5630 5623 5615 5608 5601 5596 5590 5583 5577 5571 5566 5561 5554 5545 5536 5526 5515 5504 5496 5488 5483 5479 5476 5476 5477 5478 5480 5486 5487 5490 5492 5495 5497
5697 5689 5677 5669 5664 5669 5670 5660 5652 5642 5633 5628 5620 5615 5607 5600 5592 5585 5578 5571 5566 5561 5555 5547 5538 5529 5519 5507 5494 5486 5480 5474 5470 5467 5466 5467 5468 5471 5474 5478 5482 5485 5488 5491
5702 5701 5685 5676 5672 5669 5662 5658 5652 5646 5638 5631 5624 5615 5605 5596 5588 5580 5572 5567 5562 5557 5550 5542 5532 5522 5513 5503 5492 5481 5474 5469 5465 5462 5461 5461 5463 5465 5468 5472 5477 5481 5485 5487
5701 5695 5681 5674 5673 5668 5662 5657 5652 5646 5638 5630 5622 5613 5603 5593 5584 5575 5568 5563 5558 5553 5546 5536 5526 5516 5508 5500 5491 5483 5475 5468 5464 5461 5460 5460 5461 5463 5467 5471 5475 5480 5484 5487
5696 5687 5675 5666 5667 5660 5655 5656 5652 5642 5633 5625 5616 5608 5599 5589 5579 5571 5564 5560 5555 5550 5543 5534 5525 5516 5508 5500 5493 5487 5479 5472 5466 5463 5462 5462 5462 5464 5468 5471 5476 5480 5483 5487